Location: Hylvaty SDH
(49.9612°N, 16.4057°E)
Time: 12:28:37
(UTC+01:00)

Tiros 1 - Pass Details

Date: 02 October 2020
Orbit: 630 x 663 km, 48.4° (Epoch: 28 October)

Event Time Altitude Azimuth Distance (km) Brightness Sun altitude
Rises 16:59:31 0° 267° (W) 2,958 12.0 13.2°
Reaches altitude 10° 17:01:51 10° 266° (W) 2,053 11.5 12.9°
Maximum altitude 17:06:35 75° 182° (S) 681 7.6 12.2°
Drops below altitude 10° 17:11:21 10° 97° (E) 2,072 9.3 11.5°
Sets 17:13:43 0° 96° (E) 2,987 10.0 11.1°
